SS3 R/B, 60457

Orbit data source: Space-Track

SS3 R/B, 60457 is space debris in LEO originally from a launch on Fri, 16 Aug 2024 UTC launched from the Sirharikota (SRI). Debris objects in space refer to the collection of defunct objects orbiting the Earth. Examples of debris include non-operational satellites, rocket bodies, and fragments generated from explosions, collisions, or faulty payload assembly.

Not visible in the next 10 days
Identifier
60457, 2024-147D
Orbit
LEO
Country
Flag of ININ / IND
Related business
Manufacturer
ISRO
Mission
Spacecraft
Bus & Motor
SS-3, Unknown motor
Mass
~400 kg wet, ~400 kg dry
Launch date (UTC)
2024-08-16 (1 year ago)
Launch vehicle
Unknown
Launch site
Sirharikota (SRI)
Object type
Payload
Rocket body
Debris
Shape & HBR
Cyl, 1.0 m
Radar Cross Section
2.356 m², Large (>1 m²)

Expand to show TLE details & history
Last TLE update: 4 hours ago

TLE from 4 hours ago
0 SS3 R/B
1 60457U 24147D   25308.29603885  .00308603  39433-4  81996-3 0  9991
2 60457  37.3539 321.7166 0010573 215.9675 144.0393 15.93528642 69397
Epoch: 2025-11-04T07:06Z
TLE epoch observation values (Epoch: 2025-11-04T07:06:17.756Z)
Latitude
-0.00004°
Longitude
171.35746°
Altitude
297.258 km
Speed
7.728 km/s
True Right ascension
21h 26m 51s
True Declination
0° 00' 00"
Sunlit
Object was in daylight at epoch
Visualization orbit readout
Latitude
Unknown
Longitude
Unknown
Altitude
Unknown
Speed
Unknown
Apparent Right ascension
Unknown
Apparent Declination
Unknown
Sunlit
N/A
Visualization observer readout
Local Sidereal Time
07:13:43
Azimuth
Unknown
Elevation
Unknown
Doppler factor
Unknown
Orbital elements
Apogee altitude
302.435 km
Perigee altitude
288.323 km
Semi-major axis
6,673.516 km
Eccentricity
0.00106
Inclination
37.3539°
RAAN
321.7166°
Arg. of periapsis
215.9675°
True anomaly
144.11037°
Mean anomaly
144.0393°
Eccentric anomaly
144.07484°
Mean motion
3.98117 °/min
Orbital period
90.43 mins
BSTAR
0.00081996
Loading maneuver chart data...
Computing Atmospheric mass density...
Loading historical data...
Loading historical data...
Loading historical data...
Loading historical data...
Loading historical data...
Loading historical data...
Loading historical data...
Other satellites on launch #147 in the year 2024 (2024-08-16 UTC)

Documentation

Showing up to 5 results
|